Weather History for KNCA - October, 2014

Change the Weather History Date:

Thursday, October 16, 2014

  Actual Average Record
Temperature  
Mean Temperature 64 °F -  
Max Temperature 73 °F 71 °F 84 °F (2008)
Min Temperature 55 °F 51 °F 39 °F (2006)
Degree Days  
Heating Degree Days 2    
Growing Degree Days 14 (Base 50)    
Moisture  
Dew Point 55 °F    
Average Humidity 77    
Maximum Humidity 93    
Minimum Humidity 46    
Precipitation  
Precipitation 0.00 in - - ()
Sea Level Pressure  
Sea Level Pressure 29.84 in    
Wind  
Wind Speed 6 mph (WSW)    
Max Wind Speed 13 mph    
Max Gust Speed 18 mph    
Visibility 10 miles    
Events      
Averages and records for this station are not official NWS values.
T = Trace of Precipitation, MM = Missing Value Source: NWS Daily Summary

Daily Weather History Graph

Daily Weather History Graph

Search for Another Location

Airport or City:

Trip Planner

Search our weather history database for the weather conditions in past years. The results will help you decide how hot, cold, wet, or windy it might be!

Date:

Astronomy

Oct. 16, 2014 Rise Set
Actual Time 7:16 AM EDT 6:33 PM EDT
Civil Twilight 6:50 AM EDT 6:59 PM EDT
Nautical Twilight 6:21 AM EDT 7:28 PM EDT
Astronomical Twilight 5:52 AM EDT 7:57 PM EDT
Moon 12:39 AM EDT (10/16) 2:29 PM EDT (10/16)
Length of Visible Light 12h 08m
Length of Day
11h 17m
Last Quarter, 42% of the Moon is Illuminated
Oct 16
Last Quarter
Oct 23
New
Oct 30
First Quarter
Nov 6
Full
Nov 14
Last Quarter

Hourly Weather History & Observations

Time (EDT) Temp. Dew Point Humidity Pressure Visibility Wind Dir Wind Speed Gust Speed Precip Events Conditions
12:56 AM 60.1 °F 57.9 °F 93% 29.85 in 10.0 mi SSW 5.8 mph - N/A   Clear
1:56 AM 61.0 °F 57.9 °F 90% 29.84 in 10.0 mi WSW 5.8 mph - N/A   Scattered Clouds
2:56 AM 60.1 °F 57.0 °F 90% 29.83 in 10.0 mi WSW 5.8 mph - N/A   Clear
3:56 AM 59.0 °F 55.9 °F 90% 29.82 in 10.0 mi WSW 5.8 mph - N/A   Clear
4:56 AM 57.9 °F 55.0 °F 90% 29.83 in 10.0 mi WSW 4.6 mph - N/A   Clear
5:56 AM 55.9 °F 54.0 °F 93% 29.84 in 10.0 mi WSW 4.6 mph - N/A   Clear
6:56 AM 55.9 °F 54.0 °F 93% 29.84 in 10.0 mi WSW 5.8 mph - N/A   Clear
7:56 AM 55.9 °F 54.0 °F 93% 29.85 in 10.0 mi WSW 3.5 mph - N/A   Clear
8:56 AM 61.0 °F 55.9 °F 83% 29.86 in 10.0 mi Calm Calm - N/A   Clear
9:56 AM 64.9 °F 55.9 °F 73% 29.86 in 10.0 mi SW 3.5 mph - N/A   Clear
10:56 AM 69.1 °F 55.9 °F 63% 29.86 in 10.0 mi SW 8.1 mph - N/A   Clear
11:56 AM 72.0 °F 54.0 °F 53% 29.84 in 10.0 mi SW 5.8 mph - N/A   Partly Cloudy
12:56 PM 72.0 °F 50.0 °F 46% 29.83 in 10.0 mi WSW 12.7 mph - N/A   Clear
1:56 PM 72.0 °F 51.1 °F 48% 29.80 in 10.0 mi WSW 10.4 mph 18.4 mph N/A   Scattered Clouds
2:56 PM 71.1 °F 52.0 °F 51% 29.79 in 10.0 mi West 6.9 mph - N/A   Overcast
3:56 PM 69.1 °F 54.0 °F 58% 29.80 in 10.0 mi West 6.9 mph - N/A   Overcast
4:56 PM 68.0 °F 54.0 °F 61% 29.81 in 10.0 mi WSW 5.8 mph - N/A   Overcast
5:56 PM 66.0 °F 55.9 °F 70% 29.82 in 10.0 mi SW 4.6 mph - N/A   Overcast
6:56 PM 62.1 °F 57.0 °F 84% 29.82 in 10.0 mi SSW 4.6 mph - N/A   Clear
7:56 PM 62.1 °F 55.0 °F 78% 29.83 in 10.0 mi WSW 3.5 mph - N/A   Mostly Cloudy
8:56 PM 61.0 °F 55.0 °F 81% 29.85 in 10.0 mi WSW 5.8 mph - N/A   Clear
9:56 PM 57.9 °F 55.0 °F 90% 29.86 in 10.0 mi WSW 5.8 mph - N/A   Clear
10:56 PM 57.9 °F 54.0 °F 87% 29.87 in 10.0 mi WSW 4.6 mph - N/A   Clear
11:56 PM 57.9 °F 54.0 °F 87% 29.87 in 10.0 mi SW 4.6 mph - N/A   Clear